Regional Weather Roundup
Issued by NWS

Home | Current Version | Previous Version | Graphics & Text | Print | Product List | Glossary On
Versions: 1 2 3 4 5 6 7 8 9 10 11 12 13 14 15 16 17 18 19 20 21 22 23 24 25 26 27 28 29 30 31 32 33 34 35 36 37 38 39 40 41 42 43 44 45 46 47 48 49 50
000
ASUS45 KBOU 230307
RWRCO

WEATHER ROUNDUP FOR COLORADO
NATIONAL WEATHER SERVICE DENVER/BOULDER CO
900 PM MDT TUE AUG 22 2017

NOTE: "FAIR" INDICATES FEW OR NO CLOUDS BELOW 12000 FEET WITH NO
SIGNIFICANT WEATHER AND/OR OBSTRUCTIONS TO VISIBILITY.

COZ001>005-013-030-031-230400-
...NORTHWEST COLORADO...

CITY           SKY/WX    TMP DP  RH WIND       PRES   REMARKS
CRAIG          FAIR      65  39  38 S7        30.28R
HAYDEN         FAIR      69  39  33 N5        30.32R
MEEKER         FAIR      63  47  55 NE5       30.31R
RABBIT EARS PA CLOUDY    55  34  44 NW6       30.60R
STEAMBOAT SPGS FAIR      66  42  42 CALM      30.32R
WALDEN         FAIR      63  32  31 SE3       30.42R
$$

COZ006>008-011-230400-
...WEST CENTRAL VALLEYS...

CITY           SKY/WX    TMP DP  RH WIND       PRES   REMARKS
GRAND JUNCTION FAIR      74  50  42 SW7       30.22R
MONTROSE       FAIR      69  48  47 SE6       30.31R
EAGLE          FAIR      68  42  38 CALM      30.36R
RIFLE          FAIR      72  45  37 SE12      30.26F
DELTA          FAIR      76  44  31 CALM      30.26R
NUCLA          MOCLDY    70  43  37 CALM      30.34R
$$

COZ017>023-064>068-230400-
...SOUTHWEST COLORADO...

CITY           SKY/WX    TMP DP  RH WIND       PRES   REMARKS
DURANGO        FAIR      67  42  40 NE8       30.33R
CORTEZ         FAIR      67  53  61 E6        30.25R
PAGOSA SPRINGS CLOUDY    61  47  61 S6        30.44R
TELLURIDE      FAIR      56  48  73 S5        30.54R
WOLF CREEK PAS MOCLDY    39  39 100 N10G17    30.77R
$$

COZ009-010-012-014-032>034-037-058>063-230400-
...CENTRAL COLORADO...

CITY           SKY/WX    TMP DP  RH WIND       PRES   REMARKS
ASPEN          FAIR      60  45  57 SE12      30.44R
BUENA VISTA    LGT RAIN  59  44  56 NE8G20    30.51R
COPPER MTN     FAIR      52  32  46 SW8       30.74R
BERTHOUD PASS  CLOUDY    43  36  75 SE7       30.77R
COTTONWOOD PAS CLOUDY    55  43  62 E12       30.62R
GUNNISON       FAIR      58  46  64 VRB6      30.47R
KREMMLING      CLOUDY    73  37  27 S6        30.39R
LEADVILLE      CLOUDY    51  40  65 E3        30.58R
MONARCH PASS   MOCLDY    45  37  76 SW14      30.84R
SALIDA         CLOUDY    59  53  80 N6        30.53R
SUNLIGHT       CLOUDY    50  34  53 NW3       30.67S
WILKERSON PASS RAIN      43  37  81 N10       30.74S
$$

COZ069>075-230400-
...SAN LUIS VALLEY/SANGRE DE CRISTO MOUNTAINS...

CITY           SKY/WX    TMP DP  RH WIND       PRES   REMARKS
ALAMOSA        FAIR      56  53  90 NW7       30.45R
DEL NORTE      CLOUDY    53  48  82 W9        30.51R
LA VETA PASS   NOT AVBL
SAGUACHE         N/A    N/A N/A N/A MISG        N/A
$$

COZ035-036-038>040-230400-
...NORTHERN COLORADO FRONT RANGE...

CITY           SKY/WX    TMP DP  RH WIND       PRES   REMARKS
DENVER INTL AP MOCLDY    72  52  49 S14       30.22R
DMNS CITY PARK   N/A     74  42  32 SW8       30.23S
AURORA         MOCLDY    71  54  55 S15       30.25R
FRONT RANGE AP FAIR      72  54  53 S16G22    30.24S
ERIE MUNI ARPT FAIR      73  57  56 S5        30.25S
BOULDER MUN AP FAIR      73  43  33 SW6       30.21S
CENTENNIAL     MOCLDY    70  50  49 S6        30.28R
BROOMFIELD     NOT AVBL
FORT COLLINS   FAIR      72  59  63 SE6       30.18S
LONGMONT       FAIR      76  45  32 S12       30.18F
$$

COZ041-046-047-076>085-087-088-230400-
...PIKES PEAK/PALMER DIVIDE AND SOUTHERN FOOTHILLS...

CITY           SKY/WX    TMP DP  RH WIND       PRES   REMARKS
COLO. SPRINGS  FAIR      63  54  72 S10       30.36R
A. F. ACADEMY  FAIR      62  53  72 S7        30.36S
SCHRIEVER AFB  FAIR      60  54  80 MISG      30.36S
CHEYENNE MTN   FAIR      63  53  72 S13       30.34R
ELLICOTT       FAIR     N/A N/A N/A S6        30.34S
FALCON         FAIR      60  54  80 S17       30.40R
FORT CARSON    FAIR      65  54  68 W3        30.32S
LIMON          FAIR      62  54  74 S8        30.29R
MONUMENT HILL  FAIR      61  52  72 S17G23    30.38R
CANON CITY     CLEAR     70  57  64 N6        30.29R
WALSENBURG     FAIR      64  50  59 SE7       30.33R
TRINIDAD       FAIR      60  53  77 S8        30.33F
$$

COZ042>045-048>051-090-091-230400-
...NORTHEAST COLORADO...

CITY           SKY/WX    TMP DP  RH WIND       PRES   REMARKS
GREELEY ARPT   FAIR      69  62  78 W5        30.16
AKRON          FAIR      68  51  54 S15       30.22S
BURLINGTON     FAIR      63  56  78 SE8       30.25R
WRAY           FAIR      68  54  60 SE9       30.21R
YUMA           NOT AVBL
STERLING       FAIR      68  54  60 SE7       30.17R
HOLYOKE        FAIR      63  55  77 S9        30.20R
FORT MORGAN    FAIR      70  53  53 SE10      30.19R
$$

COZ086-089-092>099-230400-
...SOUTHEAST COLORADO...

CITY           SKY/WX    TMP DP  RH WIND       PRES   REMARKS
PUEBLO         FAIR      69  51  52 E6        30.24F
LA JUNTA       FAIR      72  57  59 S3        30.23R
LAMAR          FAIR      68  57  68 SE10      30.21R
SPRINGFIELD      N/A     63  60  90 S3        30.26R
$$



USA.gov is the U.S. government's official web portal to all federal, state and local government web resources and services.